• In Netherlands
  • List of Countries
  • For 7 days
  • Water Temperature
  • Satellite Maps
  • Weather Map
  • Weather Widgets
  • user-avatar
    Login

    Hourly Weather Chernomorec

    Today, 23 October, Tuesday

    Time Temperature Precipitation Wind Pressure Humidity
    00:00 +12°C° 0 mm 3 mps 765 mmHg 77%
    01:00 +12°C° 0 mm 3 mps 765 mmHg 76%
    02:00 +11°C° 0 mm 3 mps 765 mmHg 69%
    03:00 +11°C° 0 mm 3 mps 765 mmHg 68%
    04:00 +11°C° 0 mm 4 mps 765 mmHg 67%
    05:00 +10°C° 0 mm 4 mps 764 mmHg 66%
    06:00 +11°C° 0 mm 4 mps 764 mmHg 64%
    07:00 +11°C° 0 mm 4 mps 764 mmHg 62%
    08:00 +12°C° 0 mm 4 mps 764 mmHg 60%
    09:00 +13°C° 0 mm 4 mps 764 mmHg 55%
    10:00 +15°C° 0 mm 4 mps 764 mmHg 50%
    11:00 +18°C° 0 mm 4 mps 764 mmHg 45%
    12:00 +18°C° 0 mm 3 mps 763 mmHg 44%
    13:00 +19°C° 0 mm 3 mps 763 mmHg 42%
    14:00 +20°C° 0 mm 3 mps 763 mmHg 40%
    15:00 +19°C° 0 mm 2 mps 762 mmHg 44%
    16:00 +18°C° 0 mm 2 mps 762 mmHg 47%
    17:00 +17°C° 0 mm 2 mps 761 mmHg 51%
    18:00 +16°C° 0 mm 2 mps 761 mmHg 55%
    19:00 +15°C° 0 mm 1 mps 761 mmHg 59%
    20:00 +14°C° 0 mm 1 mps 761 mmHg 63%
    21:00 +13°C° 0 mm 1 mps 760 mmHg 64%
    22:00 +13°C° 0 mm 2 mps 760 mmHg 65%
    23:00 +13°C° 0 mm 2 mps 759 mmHg 65%

    Tomorrow, 24 October, Wednesday

    Time Temperature Precipitation Wind Pressure Humidity
    00:00 +13°C° 0 mm 2 mps 759 mmHg 66%
    01:00 +12°C° 0 mm 2 mps 758 mmHg 66%
    02:00 +11°C° 0 mm 3 mps 758 mmHg 67%
    03:00 +11°C° 0 mm 3 mps 757 mmHg 68%
    04:00 +11°C° 0 mm 3 mps 757 mmHg 68%
    05:00 +11°C° 0 mm 3 mps 756 mmHg 69%
    06:00 +11°C° 0 mm 4 mps 756 mmHg 66%
    07:00 +12°C° 0 mm 4 mps 755 mmHg 63%
    08:00 +13°C° 0 mm 5 mps 755 mmHg 60%
    09:00 +15°C° 0 mm 6 mps 754 mmHg 52%
    10:00 +17°C° 0 mm 6 mps 754 mmHg 45%
    11:00 +20°C° 0 mm 7 mps 753 mmHg 37%
    12:00 +20°C° 0 mm 7 mps 752 mmHg 37%
    13:00 +20°C° 0 mm 7 mps 751 mmHg 37%
    14:00 +21°C° 0 mm 8 mps 750 mmHg 36%
    15:00 +20°C° 0 mm 7 mps 750 mmHg 38%
    16:00 +20°C° 0 mm 6 mps 750 mmHg 39%
    17:00 +19°C° 0 mm 6 mps 749 mmHg 41%
    18:00 +17°C° 0 mm 7 mps 750 mmHg 44%
    19:00 +16°C° 0 mm 8 mps 750 mmHg 48%
    20:00 +14°C° 0 mm 10 mps 750 mmHg 51%
    21:00 +13°C° 0.2 mm 10 mps 751 mmHg 51%
    22:00 +11°C° 0.2 mm 10 mps 752 mmHg 51%
    23:00 +9°C° 0.2 mm 10 mps 753 mmHg 51%

    Day after tomorrow, 25 October, Thursday

    Time Temperature Precipitation Wind Pressure Humidity
    00:00 +8°C° 0 mm 9 mps 754 mmHg 49%
    01:00 +7°C° 0 mm 9 mps 755 mmHg 47%
    02:00 +6°C° 0 mm 9 mps 755 mmHg 45%
    03:00 +6°C° 0 mm 8 mps 755 mmHg 48%
    04:00 +5°C° 0 mm 7 mps 756 mmHg 51%
    05:00 +5°C° 0 mm 7 mps 756 mmHg 54%
    06:00 +5°C° 0 mm 7 mps 757 mmHg 51%
    07:00 +6°C° 0 mm 8 mps 757 mmHg 49%
    08:00 +6°C° 0 mm 8 mps 758 mmHg 46%
    09:00 +7°C° 0 mm 8 mps 758 mmHg 42%
    10:00 +9°C° 0 mm 8 mps 759 mmHg 38%
    11:00 +11°C° 0 mm 7 mps 759 mmHg 34%
    12:00 +11°C° 0 mm 7 mps 759 mmHg 33%
    13:00 +12°C° 0 mm 7 mps 759 mmHg 31%
    14:00 +14°C° 0 mm 6 mps 759 mmHg 30%
    15:00 +13°C° 0 mm 6 mps 760 mmHg 31%
    16:00 +11°C° 0 mm 6 mps 760 mmHg 33%
    17:00 +10°C° 0 mm 5 mps 760 mmHg 34%
    18:00 +9°C° 0 mm 5 mps 760 mmHg 36%
    19:00 +9°C° 0 mm 5 mps 760 mmHg 37%
    20:00 +8°C° 0 mm 5 mps 761 mmHg 38%
    21:00 +8°C° 0 mm 5 mps 761 mmHg 38%
    22:00 +8°C° 0 mm 5 mps 761 mmHg 38%
    23:00 +8°C° 0 mm 6 mps 761 mmHg 38%

    26 October, Friday

    Time Temperature Precipitation Wind Pressure Humidity
    00:00 +8°C° 0 mm 6 mps 760 mmHg 40%
    01:00 +8°C° 0 mm 6 mps 760 mmHg 41%
    02:00 +8°C° 0 mm 6 mps 760 mmHg 43%
    03:00 +8°C° 0 mm 6 mps 760 mmHg 47%
    04:00 +8°C° 0 mm 6 mps 760 mmHg 51%
    05:00 +8°C° 0 mm 6 mps 760 mmHg 55%
    06:00 +8°C° 0 mm 6 mps 760 mmHg 56%
    07:00 +9°C° 0 mm 5 mps 761 mmHg 57%
    08:00 +10°C° 0 mm 5 mps 761 mmHg 57%
    09:00 +13°C° 0 mm 5 mps 761 mmHg 53%
    10:00 +16°C° 0 mm 5 mps 762 mmHg 48%
    11:00 +19°C° 0 mm 5 mps 762 mmHg 43%
    12:00 +20°C° 0 mm 4 mps 762 mmHg 41%
    13:00 +21°C° 0 mm 4 mps 761 mmHg 39%
    14:00 +21°C° 0 mm 3 mps 761 mmHg 38%
    15:00 +20°C° 0 mm 3 mps 761 mmHg 40%
    16:00 +19°C° 0 mm 3 mps 761 mmHg 43%
    17:00 +18°C° 0 mm 3 mps 762 mmHg 45%
    18:00 +17°C° 0 mm 3 mps 762 mmHg 49%
    19:00 +17°C° 0 mm 4 mps 762 mmHg 52%
    20:00 +15°C° 0 mm 4 mps 763 mmHg 56%
    21:00 +14°C° 0 mm 4 mps 763 mmHg 58%
    22:00 +14°C° 0 mm 4 mps 763 mmHg 61%
    23:00 +13°C° 0 mm 4 mps 763 mmHg 63%

    27 October, Saturday

    Time Temperature Precipitation Wind Pressure Humidity
    00:00 +13°C° 0 mm 4 mps 763 mmHg 66%
    01:00 +13°C° 0 mm 4 mps 763 mmHg 69%
    02:00 +12°C° 0 mm 4 mps 763 mmHg 71%
    03:00 +12°C° 0 mm 4 mps 763 mmHg 73%
    04:00 +12°C° 0 mm 4 mps 762 mmHg 75%
    05:00 +12°C° 0 mm 4 mps 762 mmHg 77%
    06:00 +13°C° 0 mm 4 mps 762 mmHg 76%
    07:00 +13°C° 0 mm 4 mps 762 mmHg 74%
    08:00 +14°C° 0 mm 5 mps 762 mmHg 73%
    09:00 +16°C° 0 mm 5 mps 762 mmHg 66%
    10:00 +19°C° 0 mm 5 mps 762 mmHg 58%
    11:00 +21°C° 0 mm 6 mps 762 mmHg 51%
    12:00 +22°C° 0 mm 6 mps 762 mmHg 49%
    13:00 +23°C° 0 mm 6 mps 761 mmHg 48%
    14:00 +24°C° 0 mm 6 mps 761 mmHg 46%
    15:00 +23°C° 0 mm 6 mps 761 mmHg 51%
    16:00 +22°C° 0 mm 5 mps 761 mmHg 57%
    17:00 +21°C° 0 mm 5 mps 760 mmHg 62%
    18:00 +20°C° 0 mm 5 mps 761 mmHg 69%
    19:00 +19°C° 0 mm 6 mps 761 mmHg 75%
    20:00 +17°C° 0 mm 6 mps 761 mmHg 82%
    21:00 +17°C° 0 mm 6 mps 761 mmHg 84%
    22:00 +17°C° 0 mm 6 mps 761 mmHg 86%
    23:00 +17°C° 0 mm 6 mps 761 mmHg 88%

    28 October, Sunday

    Time Temperature Precipitation Wind Pressure Humidity
    00:00 +17°C° 0 mm 6 mps 761 mmHg 88%
    01:00 +17°C° 0 mm 6 mps 761 mmHg 89%
    02:00 +16°C° 0 mm 6 mps 760 mmHg 90%
    03:00 +16°C° 0 mm 6 mps 761 mmHg 90%
    04:00 +16°C° 0 mm 6 mps 761 mmHg 90%
    05:00 +16°C° 0 mm 5 mps 761 mmHg 91%
    06:00 +16°C° 0 mm 6 mps 761 mmHg 89%
    07:00 +17°C° 0 mm 6 mps 761 mmHg 87%
    08:00 +17°C° 0 mm 6 mps 761 mmHg 86%
    09:00 +19°C° 0 mm 6 mps 761 mmHg 79%
    10:00 +21°C° 0 mm 7 mps 761 mmHg 73%
    11:00 +22°C° 0 mm 7 mps 761 mmHg 66%
    12:00 +23°C° 0 mm 7 mps 760 mmHg 63%
    13:00 +24°C° 0 mm 7 mps 760 mmHg 59%
    14:00 +26°C° 0 mm 7 mps 760 mmHg 55%
    15:00 +24°C° 0 mm 6 mps 760 mmHg 58%
    16:00 +23°C° 0 mm 6 mps 760 mmHg 61%
    17:00 +22°C° 0 mm 6 mps 759 mmHg 64%
    18:00 +21°C° 0 mm 6 mps 760 mmHg 66%
    19:00 +20°C° 0 mm 6 mps 760 mmHg 69%
    20:00 +19°C° 0 mm 6 mps 760 mmHg 71%
    21:00 +19°C° 0 mm 6 mps 760 mmHg 73%
    22:00 +19°C° 0 mm 5 mps 760 mmHg 74%
    23:00 +17°C° 0 mm 5 mps 760 mmHg 75%

    29 October, Monday

    Time Temperature Precipitation Wind Pressure Humidity
    00:00 +17°C° 0 mm 5 mps 759 mmHg 76%
    01:00 +17°C° 0 mm 5 mps 759 mmHg 78%
    02:00 +16°C° 0 mm 5 mps 759 mmHg 79%
    03:00 +16°C° 0 mm 5 mps 759 mmHg 80%
    04:00 +17°C° 0 mm 4 mps 759 mmHg 82%
    05:00 +15°C° 0 mm 4 mps 758 mmHg 84%
    06:00 +16°C° 0 mm 5 mps 758 mmHg 81%
    07:00 +16°C° 0 mm 5 mps 758 mmHg 79%
    08:00 +17°C° 0 mm 5 mps 758 mmHg 76%
    09:00 +19°C° 0 mm 6 mps 758 mmHg 68%
    10:00 +21°C° 0 mm 6 mps 758 mmHg 60%
    11:00 +22°C° 0 mm 7 mps 758 mmHg 53%
    12:00 +23°C° 0 mm 7 mps 757 mmHg 51%
    13:00 +23°C° 0 mm 7 mps 757 mmHg 49%
    14:00 +24°C° 0 mm 7 mps 756 mmHg 47%
    15:00 +23°C° 0 mm 6 mps 756 mmHg 50%
    16:00 +22°C° 0 mm 6 mps 756 mmHg 53%
    17:00 +21°C° 0 mm 5 mps 756 mmHg 55%
    18:00 +21°C° 0 mm 5 mps 756 mmHg 58%
    19:00 +21°C° 0 mm 5 mps 756 mmHg 61%
    20:00 +21°C° 0 mm 5 mps 756 mmHg 64%
    21:00 +20°C° 0 mm 5 mps 756 mmHg 64%
    22:00 +20°C° 0 mm 6 mps 756 mmHg 64%
    23:00 +20°C° 0 mm 6 mps 756 mmHg 65%
    Show more